This demonstration page uses our WeatherBlox Daily Observations layout. Learn more.

Hourly Observations for August 20, 2019

Temp ( °F °C ) Dew Point ( °F °C ) Humidity (%) Winds ( mph kmh ) Pressure ( in mb ) Visibility ( mi km ) Precip ( " mm )
12:15 am 00:15 Clear 76 24.7 75 24 96 96 SSE 6 9 29.83 1010 10 16.09344 0 0
12:35 am 00:35 Clear 76 24.7 75 23.9 95 95 SSE 5 7 29.83 1010 10 16.09344 0 0
12:55 am 00:55 Clear 76 24.6 75 23.7 95 95 SSE 5 7 29.83 1010 10 16.09344 0 0
1:15 am 01:15 Clear 76 24.5 75 23.7 95 95 SSE 6 9 29.83 1010 10 16.09344 0 0
1:35 am 01:35 Clear 76 24.3 74 23.5 95 95 SSE 6 9 29.8 1009 10 16.09344 0 0
1:55 am 01:55 Clear 75 23.8 74 23.2 96 96 S 5 7 29.83 1010 10 16.09344 0 0
2:15 am 02:15 Clear 75 23.7 73 23 96 96 S 5 7 29.8 1009 10 16.09344 0 0
2:35 am 02:35 Clear 75 23.7 73 22.7 94 94 S 3 6 29.8 1009 10 16.09344 0 0
2:55 am 02:55 Clear 73 22.6 71 21.8 95 95 Calm 29.83 1010 10 16.09344 0 0
3:15 am 03:15 Clear 75 24 73 22.6 92 92 S 7 11 29.83 1010 10 16.09344 0 0
3:35 am 03:35 Clear 75 23.7 72 22.2 91 91 S 6 9 29.83 1010 10 16.09344 0 0
3:55 am 03:55 Clear 75 23.7 72 22.2 91 91 S 6 9 29.83 1010 10 16.09344 0 0
4:15 am 04:15 Clear 74 23.6 71 21.8 90 90 S 10 17 29.83 1010 10 16.09344 0 0
4:35 am 04:35 Clear 74 23.5 70 21.1 86 86 SSW 9 15 29.83 1010 10 16.09344 0 0
4:55 am 04:55 Clear 73 22.9 70 21 89 89 SSW 7 11 29.8 1009 10 16.09344 0 0
5:15 am 05:15 Clear 73 22.5 69 20.7 90 90 SSW 8 13 29.83 1010 10 16.09344 0 0
5:35 am 05:35 Clear 73 22.5 69 20.8 90 90 SSW 7 11 29.8 1009 10 16.09344 0 0
5:55 am 05:55 Clear 72 22.2 69 20.5 90 90 S 6 9 29.8 1009 10 16.09344 0 0
6:15 am 06:15 Clear 73 22.5 68 20.2 87 87 S 5 7 29.83 1010 10 16.09344 0 0
6:35 am 06:35 Clear 72 22 68 20.1 89 89 Calm 29.85 1011 10 16.09344 0 0
6:55 am 06:55 Sunny 70 21 68 19.9 93 93 S 3 6 29.85 1011 10 16.09344 0 0
7:15 am 07:15 Sunny 71 21.5 68 20 91 91 Calm 29.85 1011 10 16.09344 0 0
7:35 am 07:35 Sunny 71 21.5 68 20.1 92 92 SW 3 6 29.85 1011 10 16.09344 0 0
7:55 am 07:55 Sunny 72 22.4 69 20.3 88 88 S 3 6 29.88 1012 10 16.09344 0 0
8:15 am 08:15 Sunny 74 23.2 69 20.4 84 84 S 6 9 29.85 1011 10 16.09344 0 0
8:35 am 08:35 Sunny 76 24.4 69 20.5 79 79 S 6 9 29.85 1011 10 16.09344 0 0
8:55 am 08:55 Sunny 78 25.4 69 20.7 75 75 SSW 6 9 29.85 1011 10 16.09344 0 0
9:15 am 09:15 Sunny 80 26.4 70 20.9 72 72 SSW 7 11 29.85 1011 10 16.09344 0 0
9:35 am 09:35 Sunny 81 27.1 70 20.9 69 69 SSW 9 15 29.83 1010 10 16.09344 0 0
9:55 am 09:55 Sunny 82 28 70 21 66 66 SSW 9 15 29.83 1010 10 16.09344 0 0
10:15 am 10:15 Sunny 83 28.3 70 21 65 65 SSW 7 11 29.83 1010 10 16.09344 0 0
10:35 am 10:35 Sunny 83 28.6 71 21.4 65 65 S 3 6 29.83 1010 10 16.09344 0 0
10:55 am 10:55 Sunny 83 28.6 70 21.3 65 65 S 3 6 29.83 1010 10 16.09344 0 0
11:15 am 11:15 Sunny 84 29 71 21.4 64 64 Calm 29.85 1011 10 16.09344 0 0
11:35 am 11:35 Sunny 83 28.6 71 21.8 67 67 NE 5 7 29.85 1011 10 16.09344 0 0
11:55 am 11:55 Sunny 85 29.3 73 22.8 68 68 ENE 6 9 29.85 1011 10 16.09344 0 0
12:15 pm 12:15 Sunny 85 29.5 73 23 68 68 ENE 12 19 29.85 1011 10 16.09344 0 0
12:35 pm 12:35 Sunny 85 29.4 74 23.6 71 71 ENE 10 17 29.85 1011 10 16.09344 0 0
12:55 pm 12:55 Sunny 84 29 75 24 74 74 NE 7 11 29.85 1011 10 16.09344 0 0
1:15 pm 13:15 Sunny 84 28.7 75 23.9 75 75 ENE 6 9 29.85 1011 10 16.09344 0 0
1:35 pm 13:35 Sunny 85 29.6 75 24 72 72 E 8 13 29.85 1011 10 16.09344 0 0
1:55 pm 13:55 Sunny 87 30.8 74 23.5 65 65 ENE 9 15 29.83 1010 10 16.09344 0 0
2:15 pm 14:15 Sunny 89 31.5 73 22.7 60 60 NE 10 17 29.83 1010 10 16.09344 0 0
2:35 pm 14:35 Sunny 89 31.9 74 23.1 60 60 ENE 14 22 29.83 1010 10 16.09344 0 0
2:55 pm 14:55 Sunny 90 32.1 73 22.6 57 57 ENE 14 22 29.83 1010 10 16.09344 0 0
3:15 pm 15:15 Sunny 90 32.2 73 22.6 57 57 E 15 24 29.83 1010 10 16.09344 0 0
3:35 pm 15:35 Sunny 90 32.2 71 21.8 54 54 E 15 24 29.83 1010 10 16.09344 0 0
3:55 pm 15:55 Sunny 90 32.2 73 22.6 57 57 E 14 22 29.83 1010 10 16.09344 0 0
4:15 pm 16:15 Sunny 90 32.3 73 22.6 57 57 E 13 20 29.8 1009 10 16.09344 0 0
4:35 pm 16:35 Sunny 90 32 72 22.3 56 56 E 13 20 29.8 1009 10 16.09344 0 0
4:55 pm 16:55 Sunny 90 32 73 22.9 59 59 E 15 24 29.8 1009 10 16.09344 0 0
5:15 pm 17:15 Sunny 89 31.8 74 23.5 61 61 E 12 19 29.83 1010 10 16.09344 0 0
5:35 pm 17:35 Sunny 89 31.8 72 22.3 57 57 E 13 20 29.83 1010 10 16.09344 0 0
5:55 pm 17:55 Sunny 89 31.7 73 22.6 59 59 E 14 22 29.8 1009 10 16.09344 0 0
6:15 pm 18:15 Sunny 88 31 71 21.8 58 58 E 13 20 29.8 1009 10 16.09344 0 0
6:35 pm 18:35 Sunny 87 30.6 73 22.7 63 63 E 12 19 29.8 1009 10 16.09344 0 0
6:55 pm 18:55 Sunny 86 30.1 73 22.6 64 64 E 12 19 29.83 1010 10 16.09344 0 0
7:15 pm 19:15 Sunny 85 29.5 74 23.1 68 68 ENE 12 19 29.83 1010 10 16.09344 0 0
7:35 pm 19:35 Sunny 83 28.3 77 25 82 82 ENE 9 15 29.83 1010 10 16.09344 0 0
7:55 pm 19:55 Sunny 82 27.9 77 25.2 85 85 ENE 10 17 29.83 1010 10 16.09344 0 0
8:15 pm 20:15 Sunny 81 27.1 78 25.3 90 90 E 8 13 29.83 1010 10 16.09344 0 0
8:35 pm 20:35 Clear 80 26.6 77 25 91 91 E 8 13 29.88 1012 10 16.09344 0 0
8:55 pm 20:55 Clear 79 26.1 76 24.7 92 92 ENE 8 13 29.88 1012 10 16.09344 0 0
9:15 pm 21:15 Clear 78 25.5 76 24.7 95 95 ENE 6 9 29.88 1012 10 16.09344 0 0
9:35 pm 21:35 Clear 78 25.5 77 25 97 97 ENE 9 15 29.88 1012 10 16.09344 0 0
9:55 pm 21:55 Clear 78 25.5 77 25.1 98 98 ENE 8 13 29.88 1012 7 11.265408 0 0
10:15 pm 22:15 Clear 78 25.6 77 25.2 98 98 E 8 13 29.91 1013 10 16.09344 0 0
10:35 pm 22:35 Partly Cloudy 78 25.7 77 25.2 97 97 ESE 8 13 29.91 1013 7 11.265408 0 0
10:55 pm 22:55 Mostly Cloudy 78 25.5 77 25.1 98 98 E 9 15 29.91 1013 7 11.265408 0 0
11:15 pm 23:15 Partly Cloudy 78 25.5 77 25 97 97 E 8 13 29.88 1012 7 11.265408 0 0
11:35 pm 23:35 Clear 77 25.2 76 24.7 97 97 E 9 15 29.88 1012 7 11.265408 0 0
11:55 pm 23:55 Clear 77 25 76 24.7 98 98 E 8 13 29.88 1012 7 11.265408 0 0

Powered by AerisWeather